Change the Weather History Date:

Thursday, November 22, 2012

  Actual Average (KPOE) Record (KPOE)
Temperature  
Mean Temperature 58 °F -  
Max Temperature 75 °F 64 °F 81 °F (2010)
Min Temperature 42 °F 45 °F 30 °F (2000)
Degree Days  
Heating Degree Days 6    
Growing Degree Days 8 (Base 50)    
Moisture  
Dew Point 45 °F    
Average Humidity 70    
Maximum Humidity 93    
Minimum Humidity 32    
Precipitation  
Precipitation 0.00 in - - ()
Sea Level Pressure  
Sea Level Pressure 30.28 in    
Wind  
Wind Speed 0 mph (North)    
Max Wind Speed 4 mph    
Max Gust Speed -    
Visibility 10 miles    
Events      
Averages and records for this station are not official NWS values.
T = Trace of Precipitation, MM = Missing Value Source: NWS Daily Summary

Daily Weather History Graph

Daily Weather History Graph

Search for Another Location

Airport or City:

Trip Planner

Search our weather history database for the weather conditions in past years. The results will help you decide how hot, cold, wet, or windy it might be!

Date:

Astronomy

Nov. 22, 2012 Rise Set
Actual Time 6:44 AM CST 5:10 PM CST
Civil Twilight 6:19 AM CST 5:36 PM CST
Nautical Twilight 5:49 AM CST 6:06 PM CST
Astronomical Twilight 5:20 AM CST 6:35 PM CST
Moon 1:38 PM CST (11/22) 1:25 AM CST (11/22)
Length of Visible Light 11h 17m
Length of Day
10h 25m
Waxing Gibbous, 71% of the Moon is Illuminated
Nov 22
Waxing Gibbous
Nov 28
Full
Dec 6
Last Quarter
Dec 13
New
Dec 19
First Quarter

Hourly Weather History & Observations

Time (CST) Temp. Dew Point Humidity Pressure Visibility Wind Dir Wind Speed Gust Speed Precip Events Conditions
12:54 AM 44.1 °F 41.0 °F 89% 30.26 in 10.0 mi Calm Calm - N/A   Clear
1:54 AM 43.0 °F 41.0 °F 93% 30.25 in 9.0 mi Calm Calm - N/A   Clear
2:54 AM 42.1 °F 39.9 °F 92% 30.25 in 9.0 mi Calm Calm - N/A   Clear
3:54 AM 42.1 °F 39.9 °F 92% 30.25 in 8.0 mi Calm Calm - N/A   Clear
4:54 AM 42.1 °F 39.0 °F 89% 30.24 in 7.0 mi Calm Calm - N/A   Clear
5:54 AM 42.1 °F 39.9 °F 92% 30.25 in 9.0 mi Calm Calm - N/A   Clear
6:54 AM 43.0 °F 41.0 °F 93% 30.26 in 8.0 mi Calm Calm - N/A   Clear
7:54 AM 46.0 °F 44.1 °F 93% 30.29 in 7.0 mi Calm Calm - N/A   Clear
8:54 AM 55.9 °F 53.1 °F 90% 31.02 in 10.0 mi Calm Calm - N/A   Clear
9:54 AM 64.0 °F 50.0 °F 60% 30.32 in 10.0 mi Calm Calm - N/A   Clear
10:54 AM 69.1 °F 46.9 °F 45% 30.30 in 10.0 mi Variable 3.5 mph - N/A   Clear
11:54 AM 73.0 °F 46.9 °F 39% 30.26 in 10.0 mi Variable 3.5 mph - N/A   Clear
12:54 PM 73.9 °F 43.0 °F 33% 30.23 in 10.0 mi Calm Calm - N/A   Clear
1:54 PM 75.0 °F 43.0 °F 32% 30.21 in 10.0 mi Calm Calm - N/A   Clear
2:54 PM 75.0 °F 43.0 °F 32% 30.20 in 10.0 mi Calm Calm - N/A   Clear
3:54 PM 73.0 °F 45.0 °F 37% 30.20 in 10.0 mi Variable 3.5 mph - N/A   Clear
4:54 PM 66.0 °F 48.9 °F 54% 30.20 in 10.0 mi Calm Calm - N/A   Clear
5:54 PM 59.0 °F 46.9 °F 64% 30.21 in 10.0 mi Calm Calm - N/A   Clear
6:54 PM 55.9 °F 48.0 °F 75% 30.22 in 10.0 mi Calm Calm - N/A   Clear
7:54 PM 55.9 °F 46.9 °F 72% 30.23 in 10.0 mi Calm Calm - N/A   Clear
8:54 PM 57.0 °F 46.9 °F 69% 30.25 in 10.0 mi Calm Calm - N/A   Clear
9:54 PM 55.9 °F 48.0 °F 75% 30.25 in 10.0 mi Calm Calm - N/A   Clear
10:54 PM 55.9 °F 48.9 °F 77% 30.25 in 10.0 mi Calm Calm - N/A   Clear
11:54 PM 54.0 °F 48.9 °F 83% 30.25 in 10.0 mi Calm Calm - N/A   Clear